Location: Unspecified
(35.7250°N, 0.0000°E)
Time: 14:01:55
(UTC+00:00)

Explorer 7 - Pass Details

Date: 24 June 2019
Orbit: 485 x 680 km, 50.3° (Epoch: 17 July)

Event Time Altitude Azimuth Distance (km) Brightness Sun altitude
Rises 15:33:35 0° 297° (WNW) 3,001 11.2 43.0°
Reaches altitude 10° 15:36:18 10° 283° (WNW) 2,101 10.9 42.5°
Maximum altitude 15:40:10 24° 231° (SW) 1,399 9.9 41.7°
Drops below altitude 10° 15:44:02 10° 178° (S) 2,104 9.9 40.9°
Sets 15:46:45 0° 164° (SSE) 3,006 10.4 40.4°
